Regional Weather Roundup
Issued by NWS

Home | Current Version | Previous Version | Graphics & Text | Print | Product List | Glossary On
Versions: 1 2 3 4 5 6 7 8 9 10 11 12 13 14 15 16 17 18 19 20 21 22 23 24 25 26 27 28 29 30 31 32 33 34 35 36 37 38 39 40 41 42 43 44 45 46 47 48 49 50
000
ASUS43 KOAX 250002
RWRNE

WEATHER ROUNDUP FOR NEBRASKA
NATIONAL WEATHER SERVICE OMAHA NE
600 PM CST MON NOV 24 2014

NOTES: SATELLITE DATA IS BEING USED TO AUGMENT CLOUD COVER ABOVE
       12000 FEET.
       "FAIR" INDICATES FEW OR NO CLOUDS BELOW 12,000 FEET WITH NO
       SIGNIFICANT WEATHER AND/OR OBSTRUCTIONS TO VISIBILITY.

  * THESE STATIONS DO NOT REPORT WEATHER SUCH AS RAIN...SNOW OR FOG.

NEZ001>004-019>022-054>056-250100-
NEBRASKA PANHANDLE

CITY           SKY/WX    TMP DP  RH WIND       PRES   REMARKS
SCOTTSBLUFF    PTCLDY    33  22  63 NW14      30.09R WCI  23
6HR MIN TEMP:  33; 6HR MAX TEMP:  42; 6HR PCP: TRACE;

ALLIANCE       PTCLDY    34  21  59 NW21G28   30.03R WCI  22
6HR MIN TEMP:  34; 6HR MAX TEMP:  40; 6HR PCP: TRACE;

CHADRON        CLOUDY    31  28  89 VRB3      30.10R
6HR MIN TEMP:  30; 6HR MAX TEMP:  41; 6HR PCP: TRACE;

KIMBALL        MOCLDY    31  23  72 NW12G18   30.07R WCI  21
SIDNEY         MOCLDY    33  20  58 NW18      30.07R WCI  22
6HR MIN TEMP:  32; 6HR MAX TEMP:  42; 6HR PCP: TRACE;

$$

NEZ057>060-069>072-079>082-250100-
SOUTHWEST NEBRASKA

CITY           SKY/WX    TMP DP  RH WIND       PRES   REMARKS
NORTH PLATTE   MOCLDY    32  22  66 NW7       30.02R WCI  26
6HR MIN TEMP:  32; 6HR MAX TEMP:  45; 6HR PCP: TRACE;

IMPERIAL       MOCLDY    34  29  82 NW14      30.05R WCI  25
6HR MIN TEMP:  34; 6HR MAX TEMP:  45; 6HR PCP:  0.01;

LEXINGTON      PTCLDY    36  19  50 N10       30.00R WCI  29
MCCOOK         CLOUDY    41  28  60 NW15      30.02R
6HR MIN TEMP:  41; 6HR MAX TEMP:  48;

OGALLALA       MOCLDY    39  28  63 NW21G28   30.04R WCI  29
$$

NEZ005>010-023>029-035>040-094-250100-
NORTH CENTRAL NEBRASKA

CITY           SKY/WX    TMP DP  RH WIND       PRES   REMARKS
VALENTINE      CLEAR     28  17  63 NW8       30.02R WCI  20
6HR MIN TEMP:  28; 6HR MAX TEMP:  35;

AINSWORTH      CLEAR     27  14  57 NW7       30.01R WCI  19
BROKEN BOW     CLEAR     30  16  56 N10       29.99R WCI  21
6HR MIN TEMP:  29; 6HR MAX TEMP:  41;

O`NEILL        CLEAR     27   8  43 NW12      30.00R WCI  17
ORD            CLEAR     24   7  48 NW7       29.99R WCI  16
6HR MIN TEMP:  24; 6HR MAX TEMP:  38;

$$

NEZ041-046>049-061>064-073>077-083>087-250100-
SOUTH CENTRAL NEBRASKA

CITY           SKY/WX    TMP DP  RH WIND       PRES   REMARKS
GRAND ISLAND   CLEAR     31  10  41 NW9       30.00R WCI  23
6HR MIN TEMP:  31; 6HR MAX TEMP:  40;

AURORA         CLEAR     29  12  49 NW8       29.99R WCI  21
HASTINGS       CLEAR     32  16  51 NW9       29.99R WCI  24
6HR MIN TEMP:  32; 6HR MAX TEMP:  41;

HEBRON         CLEAR     35  10  36 NW7       30.00R WCI  29
HOLDREGE       PTCLDY    34  15  45 N6        30.00R WCI  29
KEARNEY *      CLEAR     32  16  51 NW9       30.01R WCI  24
YORK           CLEAR     32  12  43 NW14      29.97R WCI  22
$$

NEZ011>018-030>034-042>045-250100-
NORTHEAST NEBRASKA

CITY           SKY/WX    TMP DP  RH WIND       PRES   REMARKS
NORFOLK        CLEAR     29   8  41 NW12      29.96R WCI  19
6HR MIN TEMP:  29; 6HR MAX TEMP:  34;

ALBION         CLEAR     28   4  36 NW7       29.98R WCI  21
BLAIR          CLEAR     32  12  43 W16G25    29.92R WCI  21
COLUMBUS *     CLEAR     28   7  40 NW14      29.98R WCI  17
FREMONT        CLEAR     31  13  47 NW17G23   29.95R WCI  19
TEKAMAH        CLEAR     31  13  47 NW18G26   29.94R WCI  19
6HR MIN TEMP:  29; 6HR MAX TEMP:  37;

WAYNE          CLEAR     28   8  44 NW13      29.95R WCI  17
$$

NEZ050>053-065>068-078-088>093-250100-
SOUTHEAST NEBRASKA

CITY           SKY/WX    TMP DP  RH WIND       PRES   REMARKS
LINCOLN        CLEAR     33   6  32 NW14      29.98R WCI  23
6HR MIN TEMP:  33; 6HR MAX TEMP:  39;

OMAHA EPPLEY   CLEAR     32  13  45 NW16G25   29.94R WCI  21
6HR MIN TEMP:  29; 6HR MAX TEMP:  37;

BEATRICE       CLEAR     29   8  42 NW9       29.98R WCI  20
FALLS CITY     CLEAR     32  18  56 W10       29.94R WCI  24
6HR MIN TEMP:  32; 6HR MAX TEMP:  39;

NEBRASKA CITY  CLEAR     32  13  45 NW14      29.94R WCI  22
PLATTSMOUTH    CLEAR     32  12  43 W16G25    29.93R WCI  21
$$

NEZ044-045-051>053-067-250100-
OMAHA AREA

CITY           SKY/WX    TMP DP  RH WIND       PRES   REMARKS
OMAHA EPPLEY   CLEAR     32  13  45 NW16G25   29.94R WCI  21
6HR MIN TEMP:  29; 6HR MAX TEMP:  37;

BLAIR          CLEAR     32  12  43 W16G25    29.92R WCI  21
FREMONT        CLEAR     31  13  47 NW17G23   29.95R WCI  19
MILLARD        CLEAR     33  13  43 NW20G29   29.94R WCI  22
OFFUTT AFB     CLEAR     33  12  43 NW14G26   29.93R WCI  23
PLATTSMOUTH    CLEAR     32  12  43 W16G25    29.93R WCI  21
WAHOO          FAIR      30  12  46 NW10      29.96R WCI  21
$$



USA.gov is the U.S. government's official web portal to all federal, state and local government web resources and services.